Location: Clanezzo
(45.7500°N, 9.6000°E)
Time: 03:38:18
(UTC+00:00)

Cosmos 1975 - Pass Details

Date: 12 May 2021
Orbit: 541 x 561 km, 82.5° (Epoch: 18 June)

Event Time Altitude Azimuth Distance (km) Brightness Sun altitude
Rises 22:50:40 0° 344° (NNW) 2,713 7.7 -25.6°
Reaches altitude 10° 22:52:55 10° 337° (NNW) 1,815 6.4 -25.6°
Enters shadow 22:55:56 36° 295° (WNW) 872 4.0 -25.7°
